Change the Weather History Date:

Sunday, April 7, 2013

  Actual Average Record
Temperature  
Mean Temperature 60 °F -  
Max Temperature 68 °F 59 °F 73 °F (1999)
Min Temperature 51 °F 41 °F 19 °F (2007)
Degree Days  
Heating Degree Days 6    
Growing Degree Days 10 (Base 50)    
Moisture  
Dew Point 38 °F    
Average Humidity 46    
Maximum Humidity 55    
Minimum Humidity 35    
Precipitation  
Precipitation 0.00 in - - ()
Sea Level Pressure  
Sea Level Pressure 30.11 in    
Wind  
Wind Speed 12 mph (SSW)    
Max Wind Speed 21 mph    
Max Gust Speed 32 mph    
Visibility 10 miles    
Events      
Averages and records for this station are not official NWS values.
T = Trace of Precipitation, MM = Missing Value Source: NWS Daily Summary

Daily Weather History Graph

Daily Weather History Graph

Search for Another Location

Airport or City:

Trip Planner

Search our weather history database for the weather conditions in past years. The results will help you decide how hot, cold, wet, or windy it might be!

Date:

Astronomy

Apr. 07, 2013 Rise Set
Actual Time 7:06 AM EDT 7:58 PM EDT
Civil Twilight 6:40 AM EDT 8:24 PM EDT
Nautical Twilight 6:09 AM EDT 8:55 PM EDT
Astronomical Twilight 5:37 AM EDT 9:28 PM EDT
Moon 5:20 AM EDT (4/7) 5:31 PM EDT (4/7)
Length of Visible Light 13h 44m
Length of Day
12h 51m
Waning Crescent, 8% of the Moon is Illuminated
Apr 7
Waning Crescent
Apr 10
New
Apr 18
First Quarter
Apr 25
Full
May 2
Last Quarter

Hourly Weather History & Observations

Time (EDT) Temp. Dew Point Humidity Pressure Visibility Wind Dir Wind Speed Gust Speed Precip Events Conditions
12:15 AM 55.4 °F 32.0 °F 41% 30.12 in 10.0 mi South 11.5 mph - N/A   Clear
12:35 AM 55.4 °F 32.0 °F 41% 30.12 in 10.0 mi South 12.7 mph 20.7 mph N/A   Clear
12:55 AM 55.4 °F 32.0 °F 41% 30.12 in 10.0 mi South 10.4 mph 18.4 mph N/A   Clear
1:15 AM 53.6 °F 32.0 °F 44% 30.12 in 10.0 mi South 9.2 mph - N/A   Clear
1:35 AM 53.6 °F 32.0 °F 44% 30.12 in 10.0 mi South 9.2 mph 17.3 mph N/A   Clear
1:55 AM 53.6 °F 32.0 °F 44% 30.12 in 10.0 mi SSE 9.2 mph - N/A   Clear
2:15 AM 53.6 °F 32.0 °F 44% 30.11 in 10.0 mi SSE 8.1 mph 16.1 mph N/A   Clear
2:35 AM 53.6 °F 32.0 °F 44% 30.10 in 10.0 mi South 11.5 mph 16.1 mph N/A   Clear
2:55 AM 53.6 °F 33.8 °F 47% 30.10 in 10.0 mi South 9.2 mph - N/A   Clear
3:15 AM 53.6 °F 33.8 °F 47% 30.09 in 10.0 mi South 13.8 mph 23.0 mph N/A   Clear
3:35 AM 53.6 °F 33.8 °F 47% 30.09 in 10.0 mi South 10.4 mph - N/A   Clear
3:55 AM 53.6 °F 33.8 °F 47% 30.09 in 10.0 mi South 10.4 mph 17.3 mph N/A   Clear
4:15 AM 51.8 °F 33.8 °F 50% 30.09 in 10.0 mi South 10.4 mph - N/A   Clear
4:35 AM 51.8 °F 33.8 °F 50% 30.08 in 10.0 mi South 10.4 mph 17.3 mph N/A   Clear
4:55 AM 51.8 °F 33.8 °F 50% 30.08 in 10.0 mi South 10.4 mph 16.1 mph N/A   Clear
5:15 AM 51.8 °F 33.8 °F 50% 30.08 in 10.0 mi South 11.5 mph 18.4 mph N/A   Clear
5:35 AM 51.8 °F 33.8 °F 50% 30.08 in 10.0 mi South 13.8 mph 20.7 mph N/A   Clear
5:55 AM 51.8 °F 33.8 °F 50% 30.08 in 10.0 mi SSW 17.3 mph - N/A   Clear
6:15 AM 51.8 °F 33.8 °F 50% 30.09 in 10.0 mi SSW 15.0 mph 18.4 mph N/A   Clear
6:35 AM 51.8 °F 33.8 °F 50% 30.09 in 10.0 mi SSW 15.0 mph - N/A   Clear
6:55 AM 51.8 °F 33.8 °F 50% 30.10 in 10.0 mi SSW 13.8 mph 20.7 mph N/A   Clear
7:15 AM 51.8 °F 33.8 °F 50% 30.11 in 10.0 mi SSW 13.8 mph 19.6 mph N/A   Clear
7:35 AM 51.8 °F 33.8 °F 50% 30.12 in 10.0 mi SSW 12.7 mph - N/A   Clear
7:55 AM 51.8 °F 33.8 °F 50% 30.12 in 10.0 mi SSW 10.4 mph - N/A   Clear
8:15 AM 51.8 °F 33.8 °F 50% 30.13 in 10.0 mi SW 8.1 mph - N/A   Clear
8:35 AM 55.4 °F 35.6 °F 47% 30.14 in 10.0 mi SSW 10.4 mph - N/A   Clear
8:55 AM 55.4 °F 35.6 °F 47% 30.14 in 10.0 mi SSW 10.4 mph - N/A   Clear
9:15 AM 55.4 °F 37.4 °F 51% 30.15 in 10.0 mi SW 16.1 mph - N/A   Clear
9:35 AM 55.4 °F 37.4 °F 51% 30.15 in 10.0 mi SW 16.1 mph 19.6 mph N/A   Clear
9:55 AM 57.2 °F 37.4 °F 48% 30.15 in 10.0 mi SW 16.1 mph 24.2 mph N/A   Clear
10:15 AM 55.4 °F 39.2 °F 54% 30.16 in 10.0 mi SW 20.7 mph 32.2 mph N/A   Clear
10:35 AM 59.0 °F 41.0 °F 51% 30.16 in 10.0 mi SW 15.0 mph 24.2 mph N/A   Clear
10:55 AM 59.0 °F 41.0 °F 51% 30.16 in 10.0 mi SW 17.3 mph 25.3 mph N/A   Clear
11:15 AM 59.0 °F 41.0 °F 51% 30.16 in 10.0 mi WSW 18.4 mph 27.6 mph N/A   Clear
11:35 AM 60.8 °F 41.0 °F 48% 30.16 in 10.0 mi SW 17.3 mph 25.3 mph N/A   Clear
11:55 AM 60.8 °F 42.8 °F 52% 30.16 in 10.0 mi SW 20.7 mph 32.2 mph N/A   Clear
12:15 PM 62.6 °F 42.8 °F 48% 30.16 in 10.0 mi SW 20.7 mph 31.1 mph N/A   Clear
12:35 PM 62.6 °F 42.8 °F 48% 30.15 in 10.0 mi SW 18.4 mph 28.8 mph N/A   Clear
12:55 PM 62.6 °F 42.8 °F 48% 30.14 in 10.0 mi SW 20.7 mph 28.8 mph N/A   Scattered Clouds
1:15 PM 62.6 °F 42.8 °F 48% 30.14 in 10.0 mi SW 17.3 mph 25.3 mph N/A   Clear
1:35 PM 62.6 °F 42.8 °F 48% 30.14 in 10.0 mi SW 15.0 mph 26.5 mph N/A   Clear
1:55 PM 64.4 °F 42.8 °F 45% 30.12 in 10.0 mi SW 19.6 mph 29.9 mph N/A   Clear
2:15 PM 62.6 °F 42.8 °F 48% 30.12 in 10.0 mi WSW 17.3 mph 25.3 mph N/A   Clear
2:35 PM 62.6 °F 42.8 °F 48% 30.11 in 10.0 mi SW 19.6 mph 26.5 mph N/A   Clear
2:55 PM 64.4 °F 42.8 °F 45% 30.11 in 10.0 mi WSW 18.4 mph 21.9 mph N/A   Clear
3:15 PM 66.2 °F 42.8 °F 43% 30.10 in 10.0 mi WSW 12.7 mph 20.7 mph N/A   Clear
3:35 PM 66.2 °F 42.8 °F 43% 30.09 in 10.0 mi SSW 13.8 mph 17.3 mph N/A   Clear
3:55 PM 68.0 °F 42.8 °F 40% 30.09 in 10.0 mi SW 15.0 mph - N/A   Clear
4:15 PM 68.0 °F 41.0 °F 37% 30.08 in 10.0 mi SW 11.5 mph 17.3 mph N/A   Clear
4:35 PM 68.0 °F 41.0 °F 37% 30.08 in 10.0 mi WSW 10.4 mph 18.4 mph N/A   Clear
4:55 PM 68.0 °F 42.8 °F 40% 30.08 in 10.0 mi WSW 15.0 mph 20.7 mph N/A   Clear
5:15 PM 68.0 °F 41.0 °F 37% 30.09 in 10.0 mi SW 13.8 mph 21.9 mph N/A   Scattered Clouds
5:35 PM 68.0 °F 41.0 °F 37% 30.09 in 10.0 mi WSW 16.1 mph - N/A   Mostly Cloudy
5:55 PM 68.0 °F 41.0 °F 37% 30.09 in 10.0 mi SW 13.8 mph - N/A   Scattered Clouds
6:15 PM 66.2 °F 39.2 °F 37% 30.09 in 10.0 mi West 12.7 mph 18.4 mph N/A   Scattered Clouds
6:35 PM 66.2 °F 37.4 °F 35% 30.09 in 10.0 mi WSW 17.3 mph 21.9 mph N/A   Mostly Cloudy
6:55 PM 64.4 °F 37.4 °F 37% 30.09 in 10.0 mi SW 12.7 mph 19.6 mph N/A   Overcast
7:15 PM 62.6 °F 37.4 °F 39% 30.09 in 10.0 mi WSW 9.2 mph - N/A   Overcast
7:35 PM 62.6 °F 37.4 °F 39% 30.09 in 10.0 mi WSW 9.2 mph - N/A   Mostly Cloudy
7:55 PM 62.6 °F 37.4 °F 39% 30.09 in 10.0 mi SW 10.4 mph - N/A   Mostly Cloudy
8:15 PM 60.8 °F 37.4 °F 42% 30.09 in 10.0 mi SW 9.2 mph - N/A   Mostly Cloudy
8:35 PM 59.0 °F 37.4 °F 45% 30.09 in 10.0 mi SW 6.9 mph - N/A   Scattered Clouds
8:55 PM 57.2 °F 37.4 °F 48% 30.10 in 10.0 mi SW 5.8 mph - N/A   Clear
9:15 PM 57.2 °F 37.4 °F 48% 30.10 in 10.0 mi SSW 5.8 mph - N/A   Clear
9:35 PM 55.4 °F 37.4 °F 51% 30.11 in 10.0 mi South 5.8 mph - N/A   Clear
9:55 PM 57.2 °F 37.4 °F 48% 30.11 in 10.0 mi South 4.6 mph - N/A   Mostly Cloudy
10:15 PM 59.0 °F 37.4 °F 45% 30.11 in 10.0 mi South 4.6 mph - N/A   Scattered Clouds
10:35 PM 59.0 °F 37.4 °F 45% 30.11 in 10.0 mi South 5.8 mph - N/A   Clear
10:55 PM 59.0 °F 37.4 °F 45% 30.10 in 10.0 mi South 5.8 mph - N/A   Clear
11:15 PM 57.2 °F 41.0 °F 55% 30.11 in 10.0 mi South 6.9 mph - N/A   Clear
11:35 PM 57.2 °F 41.0 °F 55% 30.11 in 10.0 mi SSW 9.2 mph - N/A   Scattered Clouds
11:55 PM 59.0 °F 41.0 °F 51% 30.11 in 10.0 mi SSW 9.2 mph - N/A   Mostly Cloudy